ABOUT US
vACC Philippines is a recognized member of the VATSIM network. We are dedicated to enchancing the online experience of both local and international virtual pilots. Mandated to provide professional and realistic air traffic operations.

vACC Philippines aims to provide the most realistic air traffic system simulation service that is close to the real thing as possible when flying on the VATSIM network.


METARS

RPLL 181700Z VRB02KT 9000 FEW025 29/25 Q1009 NOSIG RMK A2980


RPVM 181700Z 07004KT 9999 FEW020 28/23 Q1011 RMK A2985


RPMD 181700Z 31002KT 9999 FEW016 SCT290 28/24 Q1011 RMK A2985



AIRFIELDS COVERED


Manila (RPLL)

Subic Bay (RPLB)

Mactan-Cebu (RPVM)

Clark (RPLC)

Laoag (RPLI)


Davao (RPMD)


Bacolod (RPVB)


Zamboanga (RPMZ)


General Santos (RPMR)


Iloilo (RPVI)


Kalibo (RPVK)


Legazpi (RPLP)


Puerto Princesa (RPVP)